| time (UTC) | temp F | wind direction | speed knots | gust knots | rain 1hr in | rain 24hr in | rain mn in | humidity % | barometer mb |
| 20260507183558 | 85 | 200 | 5.2 | 7.8 | 0.00 | 0.00 | 0.00 | 78 | 1009.8 |
| 20260507183059 | 85 | 205 | 5.2 | 7.8 | 0.00 | 0.00 | 0.00 | 77 | 1009.8 |
| 20260507182558 | 85 | 193 | 5.2 | 8.7 | 0.00 | 0.00 | 0.00 | 79 | 1009.9 |
| 20260507182058 | 85 | 190 | 5.2 | 8.7 | 0.00 | 0.00 | 0.00 | 78 | 1010.0 |
| 20260507181606 | 85 | 182 | 4.3 | 7.8 | 0.00 | 0.00 | 0.00 | 79 | 1010.0 |
| 20260507181058 | 85 | 206 | 4.3 | 7.8 | 0.00 | 0.00 | 0.00 | 78 | 1010.1 |
| 20260507180601 | 85 | 186 | 4.3 | 7.0 | 0.00 | 0.00 | 0.00 | 78 | 1010.0 |
| 20260507180058 | 85 | 182 | 3.5 | 7.0 | 0.00 | 0.00 | 0.00 | 78 | 1010.1 |
| 20260507175558 | 85 | 182 | 4.3 | 9.6 | 0.00 | 0.00 | 0.00 | 79 | 1010.1 |
| 20260507175058 | 85 | 190 | 4.3 | 9.6 | 0.00 | 0.00 | 0.00 | 78 | 1010.0 |
| 20260507174602 | 85 | 192 | 3.5 | 8.7 | 0.00 | 0.00 | 0.00 | 78 | 1010.2 |
| 20260507174058 | 85 | 181 | 5.2 | 8.7 | 0.00 | 0.00 | 0.00 | 78 | 1010.3 |
| 20260507173558 | 85 | 215 | 5.2 | 7.8 | 0.00 | 0.00 | 0.00 | 78 | 1010.2 |
| 20260507173132 | 85 | 203 | 3.5 | 6.1 | 0.00 | 0.00 | 0.00 | 78 | 1010.4 |
| 20260507172558 | 85 | 157 | 3.5 | 7.0 | 0.00 | 0.00 | 0.00 | 78 | 1010.3 |
| 20260507172058 | 85 | 200 | 4.3 | 7.0 | 0.00 | 0.00 | 0.00 | 78 | 1010.4 |
| 20260507171609 | 85 | 232 | 4.3 | 7.0 | 0.00 | 0.00 | 0.00 | 78 | 1010.5 |
| 20260507171059 | 85 | 188 | 3.5 | 7.0 | 0.00 | 0.00 | 0.00 | 79 | 1010.5 |
| 20260507170558 | 85 | 211 | 3.5 | 7.0 | 0.00 | 0.00 | 0.00 | 78 | 1010.4 |
| 20260507170115 | 85 | 197 | 3.5 | 7.0 | 0.00 | 0.00 | 0.00 | 78 | 1010.4 |
| 20260507170001 | 85 | 205 | 3.5 | 7.0 | 0.00 | 0.00 | 0.00 | 78 | 1010.4 |
| 20260507165559 | 85 | 223 | 4.3 | 7.0 | 0.00 | 0.00 | 0.00 | 77 | 1010.5 |
| 20260507165059 | 85 | 223 | 3.5 | 6.1 | 0.00 | 0.00 | 0.00 | 77 | 1010.6 |
| 20260507164600 | 85 | 213 | 1.7 | 5.2 | 0.00 | 0.00 | 0.00 | 77 | 1010.7 |
| 20260507164100 | 85 | 225 | 1.7 | 6.1 | 0.00 | 0.00 | 0.00 | 76 | 1010.7 |
| 20260507163600 | 85 | 211 | 2.6 | 6.1 | 0.00 | 0.00 | 0.00 | 76 | 1010.8 |
| 20260507163100 | 85 | 227 | 2.6 | 5.2 | 0.00 | 0.00 | 0.00 | 76 | 1011.0 |
| 20260507162600 | 84 | 277 | 1.7 | 6.1 | 0.00 | 0.00 | 0.00 | 77 | 1011.0 |
| 20260507162100 | 84 | 202 | 2.6 | 6.1 | 0.00 | 0.00 | 0.00 | 77 | 1011.1 |
| 20260507161606 | 85 | 206 | 2.6 | 6.1 | 0.00 | 0.00 | 0.00 | 76 | 1011.2 |
| 20260507161059 | 85 | 262 | 2.6 | 6.1 | 0.00 | 0.00 | 0.00 | 76 | 1011.2 |
| 20260507160600 | 84 | 244 | 2.6 | 6.1 | 0.00 | 0.00 | 0.00 | 77 | 1011.3 |
| 20260507160059 | 84 | 236 | 2.6 | 6.1 | 0.00 | 0.00 | 0.00 | 77 | 1011.4 |
| 20260507155558 | 85 | 274 | 2.6 | 5.2 | 0.00 | 0.00 | 0.00 | 76 | 1011.3 |
| 20260507155100 | 84 | 271 | 0.9 | 4.3 | 0.00 | 0.00 | 0.00 | 77 | 1011.2 |
| 20260507154558 | 84 | 263 | 1.7 | 4.3 | 0.00 | 0.00 | 0.00 | 77 | 1011.3 |
| 20260507154058 | 84 | 223 | 1.7 | 4.3 | 0.00 | 0.00 | 0.00 | 77 | 1011.3 |
| 20260507153602 | 84 | 284 | 1.7 | 3.5 | 0.00 | 0.00 | 0.00 | 77 | 1011.3 |
| 20260507153101 | 83 | 229 | 2.6 | 3.5 | 0.00 | 0.00 | 0.00 | 77 | 1011.4 |
| 20260507152558 | 83 | 266 | 1.7 | 4.3 | 0.00 | 0.00 | 0.00 | 77 | 1011.5 |
| 20260507152058 | 83 | 286 | 1.7 | 4.3 | 0.00 | 0.00 | 0.00 | 77 | 1011.7 |
| 20260507151601 | 83 | 299 | 1.7 | 4.3 | 0.00 | 0.00 | 0.00 | 77 | 1011.7 |
| 20260507151058 | 84 | 275 | 2.6 | 5.2 | 0.00 | 0.00 | 0.00 | 77 | 1011.7 |
| 20260507150558 | 84 | 223 | 1.7 | 3.5 | 0.00 | 0.00 | 0.00 | 77 | 1011.8 |
| 20260507145558 | 84 | 236 | 1.7 | 3.5 | 0.00 | 0.00 | 0.00 | 77 | 1011.8 |
| 20260507145058 | 83 | 267 | 0.9 | 3.5 | 0.00 | 0.00 | 0.00 | 77 | 1011.9 |
| 20260507144602 | 83 | 277 | 0.9 | 2.6 | 0.00 | 0.00 | 0.00 | 77 | 1011.8 |
| 20260507144058 | 83 | 321 | 0.9 | 2.6 | 0.00 | 0.00 | 0.00 | 78 | 1011.9 |
| 20260507143558 | 83 | 346 | 0.9 | 2.6 | 0.00 | 0.00 | 0.00 | 78 | 1011.8 |
| 20260507143114 | 83 | 355 | 0.9 | 1.7 | 0.00 | 0.00 | 0.00 | 79 | 1011.9 |
| 20260507142559 | 82 | 302 | 0.9 | 2.6 | 0.00 | 0.00 | 0.00 | 79 | 1011.9 |
| 20260507142058 | 82 | 311 | 0.0 | 2.6 | 0.00 | 0.00 | 0.00 | 79 | 1011.9 |
| 20260507141634 | 82 | 360 | 0.9 | 1.7 | 0.00 | 0.00 | 0.00 | 79 | 1011.8 |
| 20260507141058 | 82 | 5 | 0.9 | 1.7 | 0.00 | 0.00 | 0.00 | 80 | 1011.8 |
| 20260507140559 | 82 | 9 | 0.0 | 1.7 | 0.00 | 0.00 | 0.00 | 80 | 1011.7 |
| 20260507140100 | 82 | 59 | 0.9 | 1.7 | 0.00 | 0.00 | 0.00 | 80 | 1011.7 |
| 20260507135558 | 82 | 294 | 0.0 | 1.7 | 0.00 | 0.00 | 0.00 | 81 | 1011.5 |
| 20260507135059 | 82 | 290 | 0.0 | 1.7 | 0.00 | 0.00 | 0.00 | 81 | 1011.4 |
| 20260507134604 | 82 | 341 | 0.0 | 1.7 | 0.00 | 0.00 | 0.00 | 82 | 1011.3 |
| 20260507134058 | 81 | 50 | 0.0 | 1.7 | 0.00 | 0.00 | 0.00 | 83 | 1011.2 |
| 20260507133558 | 81 | 338 | 0.0 | 1.7 | 0.00 | 0.00 | 0.00 | 83 | 1011.1 |
| 20260507133105 | 80 | 338 | 0.0 | 1.7 | 0.00 | 0.00 | 0.00 | 83 | 1011.1 |
| 20260507132557 | 80 | 338 | 0.0 | 0.9 | 0.00 | 0.00 | 0.00 | 83 | 1011.0 |
| 20260507132057 | 80 | 345 | 0.0 | 0.0 | 0.00 | 0.00 | 0.00 | 84 | 1011.0 |
| 20260507131558 | 80 | 345 | 0.0 | 1.7 | 0.00 | 0.00 | 0.00 | 84 | 1010.9 |
| 20260507131058 | 80 | 345 | 0.0 | 1.7 | 0.00 | 0.00 | 0.00 | 84 | 1010.8 |
| 20260507130558 | 80 | 345 | 0.0 | 0.9 | 0.00 | 0.00 | 0.00 | 84 | 1010.8 |
| 20260507130058 | 80 | 345 | 0.0 | 1.7 | 0.00 | 0.00 | 0.00 | 84 | 1010.9 |
| 20260507125558 | 80 | 345 | 0.0 | 1.7 | 0.00 | 0.00 | 0.00 | 84 | 1010.8 |
| 20260507125057 | 80 | 345 | 0.0 | 1.7 | 0.00 | 0.00 | 0.00 | 84 | 1010.6 |
| 20260507124558 | 80 | 345 | 0.9 | 1.7 | 0.00 | 0.00 | 0.00 | 84 | 1010.5 |
| 20260507124058 | 80 | 345 | 0.0 | 1.7 | 0.00 | 0.00 | 0.00 | 84 | 1010.5 |
| 20260507123558 | 80 | 345 | 0.0 | 1.7 | 0.00 | 0.00 | 0.00 | 84 | 1010.5 |
| 20260507123058 | 80 | 345 | 0.0 | 1.7 | 0.00 | 0.00 | 0.00 | 84 | 1010.3 |
| 20260507122558 | 80 | 345 | 0.9 | 1.7 | 0.00 | 0.00 | 0.00 | 83 | 1010.3 |
| 20260507122058 | 80 | 333 | 0.0 | 1.7 | 0.00 | 0.00 | 0.00 | 83 | 1010.3 |
| 20260507121603 | 80 | 333 | 0.0 | 1.7 | 0.00 | 0.00 | 0.00 | 83 | 1010.2 |
| 20260507121059 | 80 | 333 | 0.0 | 1.7 | 0.00 | 0.00 | 0.00 | 83 | 1010.2 |
| 20260507120558 | 80 | 61 | 0.0 | 1.7 | 0.00 | 0.00 | 0.00 | 83 | 1010.1 |
| 20260507120104 | 80 | 161 | 0.0 | 1.7 | 0.00 | 0.00 | 0.00 | 82 | 1010.0 |
| 20260507115558 | 81 | 161 | 0.0 | 1.7 | 0.00 | 0.00 | 0.00 | 83 | 1009.9 |
| 20260507115058 | 81 | 161 | 0.0 | 1.7 | 0.00 | 0.00 | 0.00 | 82 | 1009.8 |
| 20260507114615 | 81 | 161 | 0.0 | 1.7 | 0.00 | 0.00 | 0.00 | 83 | 1009.7 |
| 20260507114100 | 81 | 161 | 0.0 | 1.7 | 0.00 | 0.00 | 0.00 | 82 | 1009.7 |
| 20260507113559 | 81 | 161 | 0.0 | 1.7 | 0.00 | 0.00 | 0.00 | 83 | 1009.6 |
| 20260507113058 | 81 | 161 | 0.0 | 1.7 | 0.00 | 0.00 | 0.00 | 83 | 1009.7 |
| 20260507112559 | 81 | 107 | 0.0 | 1.7 | 0.00 | 0.00 | 0.00 | 83 | 1009.6 |
| 20260507112058 | 81 | 24 | 0.0 | 1.7 | 0.00 | 0.00 | 0.00 | 83 | 1009.5 |
| 20260507111558 | 81 | 67 | 0.0 | 1.7 | 0.00 | 0.00 | 0.00 | 83 | 1009.4 |
| 20260507111100 | 81 | 76 | 0.9 | 1.7 | 0.00 | 0.00 | 0.00 | 83 | 1009.4 |
| 20260507110558 | 81 | 63 | 0.9 | 1.7 | 0.00 | 0.00 | 0.00 | 83 | 1009.4 |
| 20260507110104 | 81 | 36 | 0.9 | 3.5 | 0.00 | 0.00 | 0.00 | 83 | 1009.4 |
| 20260507105559 | 81 | 67 | 0.9 | 3.5 | 0.00 | 0.00 | 0.00 | 83 | 1009.3 |
| 20260507105058 | 81 | 49 | 1.7 | 3.5 | 0.00 | 0.00 | 0.00 | 83 | 1009.3 |
| 20260507104600 | 81 | 50 | 1.7 | 3.5 | 0.00 | 0.00 | 0.00 | 83 | 1009.3 |
| 20260507104100 | 80 | 42 | 0.9 | 3.5 | 0.00 | 0.00 | 0.00 | 83 | 1009.3 |
| 20260507103558 | 80 | 32 | 1.7 | 3.5 | 0.00 | 0.00 | 0.00 | 83 | 1009.3 |
| 20260507103058 | 80 | 360 | 0.9 | 2.6 | 0.00 | 0.00 | 0.00 | 83 | 1009.2 |
| 20260507102558 | 80 | 30 | 1.7 | 2.6 | 0.00 | 0.00 | 0.00 | 83 | 1009.2 |
| 20260507102058 | 79 | 16 | 1.7 | 3.5 | 0.00 | 0.00 | 0.00 | 82 | 1009.3 |
| 20260507101603 | 79 | 342 | 1.7 | 3.5 | 0.00 | 0.00 | 0.00 | 82 | 1009.3 |
| 20260507101058 | 79 | 350 | 2.6 | 3.5 | 0.00 | 0.00 | 0.00 | 82 | 1009.2 |
| 20260507100558 | 80 | 332 | 2.6 | 3.5 | 0.00 | 0.00 | 0.00 | 82 | 1009.3 |
| 20260507095557 | 80 | 342 | 1.7 | 2.6 | 0.00 | 0.00 | 0.00 | 82 | 1009.4 |
| 20260507095101 | 80 | 350 | 1.7 | 2.6 | 0.00 | 0.00 | 0.00 | 82 | 1009.4 |
| 20260507094559 | 81 | 338 | 0.9 | 1.7 | 0.00 | 0.00 | 0.00 | 82 | 1009.4 |
| 20260507094056 | 81 | 355 | 0.0 | 0.9 | 0.00 | 0.00 | 0.00 | 82 | 1009.4 |
| 20260507093557 | 81 | 355 | 0.0 | 0.9 | 0.00 | 0.00 | 0.00 | 82 | 1009.4 |
| 20260507093057 | 81 | 355 | 0.9 | 1.7 | 0.00 | 0.00 | 0.00 | 82 | 1009.4 |
| 20260507092557 | 81 | 355 | 0.0 | 1.7 | 0.00 | 0.00 | 0.00 | 82 | 1009.5 |
| 20260507092057 | 81 | 355 | 0.0 | 1.7 | 0.00 | 0.00 | 0.00 | 82 | 1009.6 |
| 20260507091557 | 80 | 355 | 0.0 | 1.7 | 0.00 | 0.00 | 0.00 | 82 | 1009.4 |
| 20260507091057 | 80 | 355 | 0.0 | 1.7 | 0.00 | 0.00 | 0.00 | 82 | 1009.5 |
| 20260507090556 | 80 | 355 | 0.9 | 1.7 | 0.00 | 0.00 | 0.00 | 82 | 1009.5 |
| 20260507090057 | 80 | 355 | 0.9 | 1.7 | 0.00 | 0.00 | 0.00 | 82 | 1009.6 |
| 20260507085559 | 80 | 350 | 0.9 | 1.7 | 0.00 | 0.00 | 0.00 | 82 | 1009.6 |
| 20260507085058 | 81 | 349 | 0.0 | 1.7 | 0.00 | 0.00 | 0.00 | 82 | 1009.7 |
| 20260507084603 | 81 | 355 | 0.0 | 1.7 | 0.00 | 0.00 | 0.00 | 82 | 1009.8 |
| 20260507084057 | 81 | 13 | 0.0 | 1.7 | 0.00 | 0.00 | 0.00 | 82 | 1009.8 |
| 20260507083557 | 81 | 13 | 0.0 | 1.7 | 0.00 | 0.00 | 0.00 | 82 | 1009.9 |
| 20260507083058 | 81 | 11 | 0.0 | 1.7 | 0.00 | 0.00 | 0.00 | 82 | 1010.0 |
| 20260507082558 | 81 | 15 | 0.0 | 1.7 | 0.00 | 0.00 | 0.00 | 82 | 1010.0 |
| 20260507082058 | 81 | 15 | 0.0 | 1.7 | 0.00 | 0.00 | 0.00 | 82 | 1010.1 |
| 20260507081559 | 81 | 15 | 0.0 | 1.7 | 0.00 | 0.00 | 0.00 | 82 | 1010.2 |
| 20260507081057 | 82 | 65 | 0.0 | 1.7 | 0.00 | 0.00 | 0.00 | 83 | 1010.2 |
| 20260507080558 | 82 | 80 | 0.0 | 1.7 | 0.00 | 0.00 | 0.00 | 83 | 1010.3 |
| 20260507080057 | 82 | 80 | 0.0 | 1.7 | 0.00 | 0.00 | 0.00 | 83 | 1010.5 |
| 20260507075557 | 82 | 80 | 0.0 | 1.7 | 0.00 | 0.00 | 0.00 | 83 | 1010.5 |
| 20260507075056 | 82 | 87 | 0.9 | 1.7 | 0.00 | 0.00 | 0.00 | 83 | 1010.6 |
| 20260507074557 | 82 | 79 | 0.0 | 1.7 | 0.00 | 0.00 | 0.00 | 84 | 1010.5 |
| 20260507074056 | 82 | 65 | 0.0 | 1.7 | 0.00 | 0.00 | 0.00 | 84 | 1010.7 |
| 20260507073558 | 82 | 9 | 0.9 | 1.7 | 0.00 | 0.00 | 0.00 | 84 | 1010.8 |
| 20260507073134 | 82 | 11 | 0.9 | 1.7 | 0.00 | 0.00 | 0.00 | 84 | 1010.9 |
| 20260507072557 | 82 | 17 | 0.9 | 1.7 | 0.00 | 0.00 | 0.00 | 84 | 1010.9 |
| 20260507072056 | 82 | 318 | 0.0 | 1.7 | 0.00 | 0.00 | 0.00 | 84 | 1011.0 |
| 20260507071557 | 82 | 318 | 0.0 | 1.7 | 0.00 | 0.00 | 0.00 | 84 | 1011.0 |
| 20260507071057 | 82 | 318 | 0.0 | 1.7 | 0.00 | 0.00 | 0.00 | 84 | 1011.1 |
| 20260507070557 | 83 | 318 | 0.0 | 1.7 | 0.00 | 0.00 | 0.00 | 84 | 1011.1 |
| 20260507070058 | 83 | 318 | 0.0 | 0.9 | 0.00 | 0.00 | 0.00 | 84 | 1011.3 |
| 20260507065559 | 83 | 318 | 0.0 | 1.7 | 0.00 | 0.00 | 0.00 | 84 | 1011.4 |
| 20260507065059 | 83 | 318 | 0.0 | 1.7 | 0.00 | 0.00 | 0.00 | 84 | 1011.4 |
| 20260507064612 | 83 | 318 | 0.0 | 1.7 | 0.00 | 0.00 | 0.00 | 83 | 1011.5 |
| 20260507064100 | 83 | 335 | 0.0 | 1.7 | 0.00 | 0.00 | 0.00 | 83 | 1011.7 |
| 20260507063559 | 83 | 355 | 0.0 | 1.7 | 0.00 | 0.00 | 0.00 | 83 | 1011.7 |
| 20260507063115 | 83 | 336 | 0.0 | 1.7 | 0.00 | 0.00 | 0.00 | 83 | 1011.7 |
| 20260507062600 | 83 | 9 | 0.0 | 1.7 | 0.00 | 0.00 | 0.00 | 83 | 1011.8 |
| 20260507062100 | 83 | 29 | 0.9 | 1.7 | 0.00 | 0.00 | 0.00 | 83 | 1011.9 |
| 20260507061600 | 83 | 13 | 0.9 | 1.7 | 0.00 | 0.00 | 0.00 | 83 | 1012.0 |
| 20260507061104 | 83 | 38 | 0.9 | 1.7 | 0.00 | 0.00 | 0.00 | 83 | 1012.0 |
| 20260507060559 | 83 | 9 | 0.9 | 2.6 | 0.00 | 0.00 | 0.00 | 83 | 1012.0 |
| 20260507060059 | 83 | 355 | 1.7 | 3.5 | 0.00 | 0.00 | 0.00 | 83 | 1012.0 |
| 20260507055600 | 83 | 360 | 1.7 | 3.5 | 0.00 | 0.00 | 0.00 | 83 | 1012.1 |
| 20260507055100 | 83 | 355 | 0.9 | 2.6 | 0.00 | 0.00 | 0.00 | 83 | 1012.1 |
| 20260507054601 | 83 | 13 | 0.9 | 2.6 | 0.00 | 0.00 | 0.00 | 83 | 1012.1 |
| 20260507054102 | 83 | 9 | 1.7 | 2.6 | 0.00 | 0.00 | 0.00 | 83 | 1012.0 |
| 20260507053601 | 83 | 324 | 0.9 | 1.7 | 0.00 | 0.00 | 0.00 | 83 | 1012.1 |
| 20260507053101 | 83 | 306 | 0.0 | 1.7 | 0.00 | 0.00 | 0.00 | 83 | 1012.1 |
| 20260507052600 | 83 | 282 | 0.9 | 1.7 | 0.00 | 0.00 | 0.00 | 83 | 1012.0 |
| 20260507052100 | 83 | 277 | 0.9 | 1.7 | 0.00 | 0.00 | 0.00 | 83 | 1012.1 |
| 20260507051600 | 83 | 302 | 0.9 | 1.7 | 0.00 | 0.00 | 0.00 | 83 | 1012.0 |
| 20260507051104 | 83 | 308 | 0.0 | 1.7 | 0.00 | 0.00 | 0.00 | 83 | 1012.1 |
| 20260507050600 | 83 | 272 | 0.9 | 1.7 | 0.00 | 0.00 | 0.00 | 83 | 1012.0 |
| 20260507045559 | 83 | 247 | 0.9 | 2.6 | 0.00 | 0.00 | 0.00 | 83 | 1011.9 |
| 20260507045100 | 83 | 289 | 0.9 | 2.6 | 0.00 | 0.00 | 0.00 | 83 | 1011.9 |
| 20260507044601 | 83 | 263 | 0.0 | 2.6 | 0.00 | 0.00 | 0.00 | 84 | 1012.0 |
| 20260507044059 | 83 | 311 | 0.9 | 2.6 | 0.00 | 0.00 | 0.00 | 84 | 1011.9 |
| 20260507043600 | 83 | 306 | 0.9 | 1.7 | 0.00 | 0.00 | 0.00 | 84 | 1011.9 |
| 20260507043101 | 83 | 342 | 0.0 | 2.6 | 0.00 | 0.00 | 0.00 | 84 | 1011.8 |
| 20260507042559 | 83 | 355 | 0.0 | 2.6 | 0.00 | 0.00 | 0.00 | 84 | 1011.7 |
| 20260507042103 | 83 | 332 | 0.9 | 2.6 | 0.00 | 0.00 | 0.00 | 84 | 1011.7 |
| 20260507041612 | 83 | 333 | 0.0 | 2.6 | 0.00 | 0.00 | 0.00 | 84 | 1011.7 |
| 20260507041100 | 83 | 312 | 0.9 | 2.6 | 0.00 | 0.00 | 0.00 | 84 | 1011.6 |
| 20260507040600 | 83 | 300 | 0.0 | 2.6 | 0.00 | 0.00 | 0.00 | 84 | 1011.6 |
| 20260507040108 | 83 | 317 | 0.9 | 2.6 | 0.00 | 0.00 | 0.00 | 84 | 1011.5 |
| 20260507035600 | 83 | 311 | 0.0 | 2.6 | 0.00 | 0.00 | 0.00 | 84 | 1011.4 |
| 20260507035100 | 83 | 360 | 0.9 | 2.6 | 0.00 | 0.00 | 0.00 | 84 | 1011.4 |
| 20260507034620 | 83 | 328 | 0.9 | 3.5 | 0.00 | 0.00 | 0.00 | 84 | 1011.2 |
| 20260507034102 | 83 | 271 | 1.7 | 3.5 | 0.00 | 0.00 | 0.00 | 84 | 1011.2 |
| 20260507033600 | 83 | 278 | 0.9 | 4.3 | 0.00 | 0.00 | 0.00 | 83 | 1011.1 |
| 20260507033108 | 83 | 332 | 2.6 | 4.3 | 0.00 | 0.00 | 0.00 | 83 | 1011.1 |
| 20260507032600 | 83 | 323 | 2.6 | 4.3 | 0.00 | 0.00 | 0.00 | 83 | 1011.0 |
| 20260507032100 | 83 | 330 | 1.7 | 3.5 | 0.00 | 0.00 | 0.00 | 83 | 1011.0 |
| 20260507031600 | 83 | 322 | 0.9 | 3.5 | 0.00 | 0.00 | 0.00 | 83 | 1011.0 |
| 20260507031102 | 83 | 290 | 0.9 | 3.5 | 0.00 | 0.00 | 0.00 | 83 | 1011.0 |
| 20260507030604 | 83 | 340 | 1.7 | 3.5 | 0.00 | 0.00 | 0.00 | 83 | 1011.0 |
| 20260507030105 | 83 | 348 | 0.9 | 3.5 | 0.00 | 0.00 | 0.00 | 82 | 1010.9 |
| 20260507030000 | 84 | 9 | 0.9 | 3.5 | 0.00 | 0.00 | 0.00 | 82 | 1011.0 |
| 20260507025559 | 83 | 5 | 1.7 | 5.2 | 0.00 | 0.00 | 0.00 | 82 | 1010.9 |
| 20260507025101 | 84 | 316 | 2.6 | 5.2 | 0.00 | 0.00 | 0.00 | 82 | 1011.0 |
| 20260507024605 | 84 | 360 | 2.6 | 4.3 | 0.00 | 0.00 | 0.00 | 82 | 1011.0 |
| 20260507024100 | 84 | 345 | 2.6 | 4.3 | 0.00 | 0.00 | 0.00 | 82 | 1010.9 |
| 20260507023600 | 84 | 339 | 2.6 | 4.3 | 0.00 | 0.00 | 0.00 | 82 | 1011.1 |
| 20260507023059 | 84 | 9 | 1.7 | 4.3 | 0.00 | 0.00 | 0.00 | 82 | 1011.0 |
| 20260507022600 | 84 | 309 | 1.7 | 4.3 | 0.00 | 0.00 | 0.00 | 82 | 1011.0 |
| 20260507022101 | 84 | 299 | 1.7 | 4.3 | 0.00 | 0.00 | 0.00 | 81 | 1011.0 |
| 20260507021608 | 84 | 313 | 1.7 | 5.2 | 0.00 | 0.00 | 0.00 | 82 | 1010.9 |
| 20260507021059 | 84 | 316 | 2.6 | 5.2 | 0.00 | 0.00 | 0.00 | 82 | 1011.0 |
| 20260507020559 | 84 | 320 | 2.6 | 4.3 | 0.00 | 0.00 | 0.00 | 82 | 1011.0 |
| 20260507020002 | 84 | 287 | 0.9 | 6.1 | 0.00 | 0.00 | 0.00 | 82 | 1011.0 |
| 20260507015559 | 84 | 325 | 2.6 | 6.1 | 0.00 | 0.00 | 0.00 | 82 | 1011.0 |
| 20260507015500 | 84 | 252 | 2.6 | 6.1 | 0.00 | 0.00 | 0.00 | 81 | 1010.9 |
| 20260507015101 | 84 | 317 | 2.6 | 5.2 | 0.00 | 0.00 | 0.00 | 82 | 1011.0 |
| 20260507014600 | 84 | 329 | 0.9 | 5.2 | 0.00 | 0.00 | 0.00 | 82 | 1010.8 |
| 20260507014103 | 84 | 331 | 1.7 | 4.3 | 0.00 | 0.00 | 0.00 | 82 | 1010.9 |
| 20260507013601 | 84 | 339 | 0.9 | 5.2 | 0.00 | 0.00 | 0.00 | 82 | 1010.9 |
| 20260507013116 | 84 | 274 | 1.7 | 6.1 | 0.00 | 0.00 | 0.00 | 82 | 1010.9 |
| 20260507012601 | 84 | 323 | 1.7 | 6.1 | 0.00 | 0.00 | 0.00 | 81 | 1010.9 |
| 20260507012100 | 84 | 294 | 0.9 | 6.1 | 0.00 | 0.00 | 0.00 | 81 | 1010.7 |
| 20260507011600 | 84 | 267 | 0.9 | 6.1 | 0.00 | 0.00 | 0.00 | 81 | 1010.6 |
| 20260507011100 | 84 | 250 | 1.7 | 5.2 | 0.00 | 0.00 | 0.00 | 81 | 1010.6 |
| 20260507010600 | 84 | 306 | 0.9 | 7.8 | 0.00 | 0.00 | 0.00 | 81 | 1010.6 |
| 20260507010003 | 84 | 273 | 3.5 | 7.8 | 0.00 | 0.00 | 0.00 | 81 | 1010.6 |
| 20260507005605 | 84 | 296 | 2.6 | 7.0 | 0.00 | 0.00 | 0.00 | 81 | 1010.6 |